sat.trackr.live / text

‹ back to catalog

STARLINK-34982

NORAD 65243 · 2025-179J

PAYLOAD ACTIVE UNKNOWN

§ Identity

Operator
Country
US
Launch date
2025-08-18
Launch site
AFWTR
Launch vehicle
Mass (kg)
RCS (m²)

Purposes: comms

External: N2YO · Heavens-Above · Gunter

§ Orbital elements

Epoch: 2026-09-20T23:14:22.679520Z

Period
93.91 min
Inclination
97.2839°
Eccentricity
0.0001450
Mean motion
15.33445845 rev/d
Perigee alt
464.5 km
Apogee alt
466.5 km
Semi-major
6,843.7 km
B*
1.7004e-4
RAAN
303.2669°
Arg perigee
118.3637°
Mean anomaly
241.7752°
Rev number
6,154

§ Raw data

STARLINK-349821 65243U 25179J   26263.96831805  .00005418  00000+0  17004-3 0  99952 65243  97.2839 303.2669 0001450 118.3637 241.7752 15.33445845 61544

JSON: /api/v1/satellites/65243 · /tle

For live sub-satellite position, see the globe view (requires WebGL).

§ Visibility from observer

Set your observer location to see the next 7 days of passes ≥ 10°. The values pass through the URL so the page stays shareable.

No JS? Fill the form by hand. The geolocation button needs JavaScript.